Location: Yecla
(38.6122°N, 1.1101°W)
Time: 07:03:20
(UTC+02:00)

ISS - Visible Passes

Search period start: 30 September 2023 00:00
Search period end: 10 October 2023 00:00
Orbit: 414 x 421 km, 51.6° (Epoch: 29 September)

Date Brightness Start Highest point End Pass type
(mag) Time Alt. Az. Time Alt. Az. Time Alt. Az.
30 Sep -2.7 21:41:18 10° NW 21:43:40 43° NW 21:43:40 43° NW visible
01 Oct -3.2 20:53:19 10° NW 20:56:32 43° NNE 20:57:42 30° E visible
02 Oct -2.2 21:42:01 10° WNW 21:44:42 32° WSW 21:44:42 32° WSW visible
03 Oct -3.4 20:53:37 10° WNW 20:56:56 63° SW 20:58:51 22° SE visible
04 Oct -3.8 20:05:19 10° NW 20:08:39 71° NE 20:11:58 10° ESE visible
04 Oct -0.8 21:43:58 10° WSW 21:44:58 11° SW 21:45:57 10° SW visible
05 Oct -1.3 20:54:16 10° W 20:56:47 20° SW 20:59:17 10° S visible
06 Oct -2.2 20:05:23 10° WNW 20:08:29 36° SW 20:11:33 10° SSE visible
08 Oct -0.6 20:06:24 10° WSW 20:07:46 12° SW 20:09:08 10° SSW visible
